星链-30229 (STARLINK-30229 )

导读

STARLINK-30229是美国太空探索技术公司(SpaceX)星链星座的卫星,星链计划旨在搭建全球卫星互联网,提供无缝网络覆盖。它于2023年7月28日发射升空,加入近地轨道的星链网络,为全球尤其是偏远地区提供高速低延迟的互联网服务,推进全球网络互联互通的覆盖进程。

基本信息
目录编号:
57461
目录名称:
STARLINK-30229
国际标识:
2023-107E
轨道中心:
EARTH
卫星名称:
星链-30229
卫星全名:
星链-30229 (STARLINK-30229 )
卫星状态:
在轨 (已飞行1134 天)
发射日期:
2023-07-28 UTC
国别 :
美国 (US)
星等 :
--
轨道信息
数据来源 国际轨道数据 AOE轨道数据
星历时间 2026-09-04T05:21:12+0800
16小时前
查看轨道信息
2026-09-02T09:00:00+0800
2天前
查看轨道信息
半长轴 6861.196km 6861.175km
偏心率 0.0001445 0.0001089
轨道倾角 43.002° 43.004°
近地点辐角 267.788° 278.971°
升交点赤经 57.131° 67.571°
平近点角 92.281° 346.183°
近地点 482.067km 482.29km
远地点 484.051km 483.786km
周期 94.267分钟 94.267分钟
每日圈数 15.275768 15.27584
详细信息
固有亮度:
5
最大亮度:
0.3
卫星平台:
Starlink v2.0 mini
覆盖范围:
全球
运营商:
太空探索技术公司
运营商所在国:
美国
制造商(研发单位):
太空探索技术公司
制造商所在国:
美国
使用方式:
暂无
卫星简介
星链(Starlink)计划是由太空探索技术公司(SpaceX)提出的一个巨型低轨卫星互联网星座项目,计划在2019年至2024年间在太空搭建由约1.2万颗卫星组成的“星链”网络,其中1584颗将部署在地球上空550千米处的近地轨道,并从2020年开始工作。该卫星仍在工作。
2D轨道图
3D轨道图
轨道高度分析图
轨道倾角分析图
轨道综合分析图
查看轨道综合分析图